Weather History for KPNT - January, 2014

Change the Weather History Date:

Thursday, January 2, 2014

  Actual Average Record
Temperature  
Mean Temperature 11 °F -  
Max Temperature 19 °F 30 °F 64 °F (2004)
Min Temperature 1 °F 16 °F -14 °F (1928)
Degree Days  
Heating Degree Days 54    
Moisture  
Dew Point 9 °F    
Average Humidity 82    
Maximum Humidity 93    
Minimum Humidity 72    
Precipitation  
Precipitation 0.00 in - - ()
Sea Level Pressure  
Sea Level Pressure 30.23 in    
Wind  
Wind Speed 13 mph (NNW)    
Max Wind Speed 21 mph    
Max Gust Speed 25 mph    
Visibility 8 miles    
Events Snow    
Averages and records for this station are not official NWS values.
T = Trace of Precipitation, MM = Missing Value Source: NWS Daily Summary

Daily Weather History Graph

Daily Weather History Graph

Search for Another Location

Airport or City:

Trip Planner

Search our weather history database for the weather conditions in past years. The results will help you decide how hot, cold, wet, or windy it might be!

Date:

Astronomy

Jan. 02, 2014 Rise Set
Actual Time 7:19 AM CST 4:38 PM CST
Civil Twilight 6:48 AM CST 5:09 PM CST
Nautical Twilight 6:13 AM CST 5:43 PM CST
Astronomical Twilight 5:40 AM CST 6:16 PM CST
Moon 7:59 AM CST (1/2) 6:35 PM CST (1/2)
Length of Visible Light 10h 20m
Length of Day
9h 18m
Waxing Crescent, 3% of the Moon is Illuminated
Jan 2
Waxing Crescent
Jan 7
First Quarter
Jan 15
Full
Jan 23
Last Quarter
Jan 30
New

Hourly Weather History & Observations

Time (CST) Temp. Windchill Dew Point Humidity Pressure Visibility Wind Dir Wind Speed Gust Speed Precip Events Conditions
12:15 AM 19.4 °F 8.6 °F 17.6 °F 93% 30.11 in 5.0 mi NE 9.2 mph - N/A Snow Light Snow
12:35 AM 19.4 °F 5.5 °F 17.6 °F 93% 30.11 in 4.0 mi NNE 15.0 mph - N/A Snow Light Snow
12:55 AM 19.4 °F 7.2 °F 17.6 °F 93% 30.11 in 4.0 mi NNE 11.5 mph - N/A Snow Light Snow
1:15 AM 19.4 °F 6.0 °F 17.6 °F 93% 30.11 in 5.0 mi NNE 13.8 mph - N/A Snow Light Snow
1:35 AM 19.4 °F 5.5 °F 17.6 °F 93% 30.11 in 5.0 mi NNE 15.0 mph - N/A Snow Light Snow
1:55 AM 19.4 °F 6.0 °F 17.6 °F 93% 30.11 in 10.0 mi NNE 13.8 mph - N/A   Overcast
2:15 AM 19.4 °F 6.6 °F 17.6 °F 93% 30.11 in 10.0 mi NNE 12.7 mph - N/A Snow Light Snow
2:35 AM 19.4 °F 8.6 °F 17.6 °F 93% 30.10 in 10.0 mi North 9.2 mph - N/A   Overcast
2:55 AM 19.4 °F 6.0 °F 17.6 °F 93% 30.09 in 7.0 mi North 13.8 mph - N/A   Overcast
3:15 AM 19.4 °F 6.0 °F 15.8 °F 86% 30.09 in 10.0 mi North 13.8 mph - N/A   Overcast
3:35 AM 17.6 °F 2.7 °F 15.8 °F 93% 30.08 in 10.0 mi North 16.1 mph - N/A   Overcast
3:55 AM 17.6 °F 3.2 °F 15.8 °F 93% 30.09 in 10.0 mi North 15.0 mph - N/A   Overcast
4:15 AM 17.6 °F 3.7 °F 14.0 °F 86% 30.09 in 10.0 mi North 13.8 mph 24.2 mph N/A   Overcast
4:35 AM 15.8 °F 1.4 °F 12.2 °F 86% 30.10 in 10.0 mi NNW 13.8 mph - N/A   Overcast
4:55 AM 15.8 °F 2.1 °F 12.2 °F 86% 30.11 in 10.0 mi North 12.7 mph - N/A   Overcast
5:15 AM 15.8 °F 2.1 °F 12.2 °F 86% 30.11 in 10.0 mi NNW 12.7 mph - N/A Snow Light Snow
5:35 AM 15.8 °F 0.9 °F 12.2 °F 86% 30.11 in 10.0 mi NNW 15.0 mph - N/A Snow Light Snow
5:55 AM 15.8 °F 0.3 °F 12.2 °F 86% 30.12 in 10.0 mi NNW 16.1 mph - N/A Snow Light Snow
6:15 AM 15.8 °F 0.3 °F 10.4 °F 79% 30.12 in 10.0 mi NNW 16.1 mph 21.9 mph N/A Snow Light Snow
6:35 AM 15.8 °F 0.9 °F 10.4 °F 79% 30.13 in 5.0 mi NNW 15.0 mph - N/A Snow Light Snow
6:55 AM 15.8 °F 0.9 °F 12.2 °F 86% 30.13 in 5.0 mi NNW 15.0 mph - N/A Snow Light Snow
7:15 AM 15.8 °F 0.3 °F 12.2 °F 86% 30.13 in 5.0 mi North 16.1 mph - N/A Snow Light Snow
7:35 AM 15.8 °F 0.3 °F 12.2 °F 86% 30.13 in 4.0 mi NNW 16.1 mph - N/A Snow Light Snow
7:55 AM 15.8 °F 0.3 °F 12.2 °F 86% 30.13 in 2.0 mi NNW 16.1 mph 21.9 mph N/A Snow Light Snow
8:15 AM 15.8 °F -0.2 °F 12.2 °F 86% 30.14 in 1.5 mi NNW 17.3 mph - N/A Snow Light Snow
8:35 AM 15.8 °F 0.3 °F 12.2 °F 86% 30.14 in 1.0 mi North 16.1 mph 21.9 mph N/A Snow Light Snow
8:55 AM 15.8 °F -0.6 °F 12.2 °F 86% 30.15 in 0.8 mi NNW 18.4 mph 23.0 mph N/A Snow Light Snow
9:15 AM 15.8 °F -1.5 °F 12.2 °F 86% 30.16 in 1.0 mi North 20.7 mph - N/A Snow Light Snow
9:35 AM 15.8 °F -0.6 °F 12.2 °F 86% 30.17 in 1.0 mi North 18.4 mph - N/A   Overcast
9:55 AM 15.8 °F -0.2 °F 12.2 °F 86% 30.18 in 1.2 mi North 17.3 mph 25.3 mph N/A Snow Light Snow
10:15 AM 17.6 °F 2.7 °F 12.2 °F 79% 30.19 in 2.5 mi North 16.1 mph 23.0 mph N/A Snow Light Snow
10:35 AM 17.6 °F 2.7 °F 12.2 °F 79% 30.19 in 4.0 mi North 16.1 mph 23.0 mph N/A   Overcast
10:55 AM 17.6 °F 1.7 °F 14.0 °F 86% 30.19 in 5.0 mi North 18.4 mph - N/A   Overcast
11:15 AM 19.4 °F 4.5 °F 12.2 °F 74% 30.19 in 10.0 mi NNW 17.3 mph - N/A   Mostly Cloudy
11:35 AM 19.4 °F 5.5 °F 12.2 °F 74% 30.19 in 10.0 mi NNW 15.0 mph - N/A   Scattered Clouds
11:55 AM 19.4 °F 4.1 °F 12.2 °F 74% 30.19 in 10.0 mi NNW 18.4 mph - N/A   Clear
12:15 PM 17.6 °F 1.7 °F 12.2 °F 79% 30.19 in 10.0 mi NNW 18.4 mph 21.9 mph N/A   Scattered Clouds
12:35 PM 17.6 °F 2.2 °F 12.2 °F 79% 30.19 in 7.0 mi NNW 17.3 mph - N/A   Scattered Clouds
12:55 PM 17.6 °F 1.7 °F 12.2 °F 79% 30.20 in 10.0 mi NNW 18.4 mph 21.9 mph N/A   Scattered Clouds
1:15 PM 17.6 °F 1.3 °F 12.2 °F 79% 30.20 in 7.0 mi NNW 19.6 mph - N/A   Scattered Clouds
1:35 PM 17.6 °F 2.7 °F 12.2 °F 79% 30.21 in 7.0 mi NNW 16.1 mph - N/A   Scattered Clouds
1:55 PM 17.6 °F 2.7 °F 12.2 °F 79% 30.22 in 7.0 mi NNW 16.1 mph 21.9 mph N/A   Scattered Clouds
2:15 PM 17.6 °F 1.7 °F 12.2 °F 79% 30.23 in 4.0 mi NNW 18.4 mph - N/A   Haze
2:35 PM 17.6 °F 2.7 °F 12.2 °F 79% 30.24 in 4.0 mi NNW 16.1 mph 23.0 mph N/A   Haze
2:55 PM 15.8 °F 0.9 °F 10.4 °F 79% 30.25 in 7.0 mi NNW 15.0 mph - N/A   Clear
3:15 PM 15.8 °F -0.2 °F 10.4 °F 79% 30.26 in 10.0 mi NNW 17.3 mph 23.0 mph N/A   Scattered Clouds
3:35 PM 15.8 °F 1.4 °F 10.4 °F 79% 30.28 in 10.0 mi NNW 13.8 mph - N/A   Scattered Clouds
3:55 PM 15.8 °F 2.1 °F 10.4 °F 79% 30.29 in 10.0 mi NNW 12.7 mph - N/A   Clear
4:15 PM 15.8 °F 1.4 °F 10.4 °F 79% 30.30 in 10.0 mi NNW 13.8 mph - N/A   Mostly Cloudy
4:35 PM 15.8 °F 0.9 °F 8.6 °F 73% 30.31 in 10.0 mi NNW 15.0 mph - N/A   Overcast
4:55 PM 12.2 °F -3.1 °F 6.8 °F 79% 30.32 in 10.0 mi NNW 13.8 mph - N/A   Scattered Clouds
5:15 PM 12.2 °F -1.8 °F 6.8 °F 79% 30.33 in 10.0 mi NNW 11.5 mph - N/A   Clear
5:35 PM 12.2 °F -2.5 °F 6.8 °F 79% 30.34 in 10.0 mi NNW 12.7 mph - N/A   Clear
5:55 PM 10.4 °F -2.4 °F 5.0 °F 79% 30.35 in 10.0 mi NW 9.2 mph - N/A   Clear
6:15 PM 10.4 °F -3.3 °F 3.2 °F 73% 30.36 in 10.0 mi NW 10.4 mph - N/A   Clear
6:35 PM 8.6 °F -4.7 °F 3.2 °F 79% 30.36 in 10.0 mi NW 9.2 mph - N/A   Clear
6:55 PM 8.6 °F -4.7 °F 3.2 °F 79% 30.38 in 10.0 mi NW 9.2 mph - N/A   Clear
7:15 PM 8.6 °F -6.3 °F 1.4 °F 73% 30.38 in 10.0 mi NW 11.5 mph - N/A   Clear
7:35 PM 8.6 °F -2.6 °F 1.4 °F 73% 30.39 in 10.0 mi NW 6.9 mph - N/A   Clear
7:55 PM 6.8 °F -5.9 °F 1.4 °F 79% 30.40 in 10.0 mi NW 8.1 mph - N/A   Clear
8:15 PM 6.8 °F -7.8 °F 1.4 °F 79% 30.39 in 10.0 mi NNW 10.4 mph - N/A   Clear
8:35 PM 6.8 °F -4.8 °F -0.4 °F 72% 30.40 in 10.0 mi NW 6.9 mph - N/A   Clear
8:55 PM 6.8 °F -7.8 °F -0.4 °F 72% 30.40 in 10.0 mi NNW 10.4 mph - N/A   Clear
9:15 PM 5.0 °F -6.9 °F -0.4 °F 78% 30.41 in 10.0 mi NW 6.9 mph - N/A   Clear
9:35 PM 3.2 °F -10.3 °F -0.4 °F 85% 30.40 in 10.0 mi NNW 8.1 mph - N/A   Clear
9:55 PM 3.2 °F -9.1 °F -2.2 °F 78% 30.41 in 10.0 mi NW 6.9 mph - N/A   Clear
10:15 PM 3.2 °F -10.3 °F -2.2 °F 78% 30.42 in 10.0 mi NW 8.1 mph - N/A   Clear
10:35 PM 3.2 °F -10.3 °F -2.2 °F 78% 30.41 in 10.0 mi NNW 8.1 mph - N/A   Clear
10:55 PM 3.2 °F -11.3 °F -2.2 °F 78% 30.42 in 10.0 mi NW 9.2 mph - N/A   Clear
11:15 PM 3.2 °F -10.3 °F -2.2 °F 78% 30.42 in 10.0 mi NNW 8.1 mph - N/A   Clear
11:35 PM 3.2 °F -10.3 °F -2.2 °F 78% 30.42 in 10.0 mi NW 8.1 mph - N/A   Clear
11:55 PM 1.4 °F -6.2 °F -4.0 °F 78% 30.41 in 10.0 mi NW 3.5 mph - N/A   Clear